This demonstration page uses our WeatherBlox Daily Observations layout. Learn more.

Left ArrowRight Arrow

39.29038, -76.61219

Hourly Observations for November 4, 2018

Temp ( °F °C ) Dew Point ( °F °C ) Humidity (%) Winds ( mph kmh ) Pressure ( in mb ) Visibility ( mi km ) Precip ( " mm )
12:54 am 00:54 undefined 47 8.3 34 1.1 61 61 undefined N/A 30.40 1029 N/A 0.00 0.00
1:54 am 01:54 undefined 46 7.8 35 1.7 66 66 undefined N/A 30.41 1030 N/A 0.00 0.00
1:54 am 01:54 undefined 46 7.8 35 1.7 66 66 undefined N/A 30.42 1030 N/A 0.00 0.00
2:54 am 02:54 undefined 44 6.7 36 2.2 73 73 undefined N/A 30.43 1031 N/A 0.00 0.00
3:54 am 03:54 undefined 44 6.7 37 2.8 76 76 undefined N/A 30.45 1031 N/A 0.00 0.00
4:54 am 04:54 undefined 43 6.1 36 2.2 76 76 undefined N/A 30.47 1032 N/A 0.00 0.00
5:54 am 05:54 undefined 44 6.7 37 2.8 76 76 undefined N/A 30.50 1033 N/A 0.00 0.00
6:54 am 06:54 undefined 43 6.1 36 2.2 76 76 undefined N/A 30.51 1033 N/A 0.00 0.00
7:54 am 07:54 undefined 47 8.3 35 1.7 63 63 undefined N/A 30.56 1035 N/A 0.00 0.00
8:54 am 08:54 undefined 51 10.6 34 1.1 52 52 undefined N/A 30.61 1037 N/A 0.00 0.00
9:54 am 09:54 undefined 53 11.7 34 1.1 48 48 undefined N/A 30.58 1035 N/A 0.00 0.00
10:54 am 10:54 undefined 54 12.2 33 0.6 45 45 undefined N/A 30.56 1035 N/A 0.00 0.00
11:54 am 11:54 undefined 55 12.8 34 1.1 45 45 undefined N/A 30.54 1034 N/A 0.00 0.00
12:54 pm 12:54 undefined 56 13.3 35 1.7 46 46 undefined N/A 30.51 1033 N/A 0.00 0.00
1:54 pm 13:54 undefined 55 12.8 34 1.1 45 45 undefined N/A 30.47 1032 N/A 0.00 0.00
2:54 pm 14:54 undefined 54 12.2 34 1.1 47 47 undefined N/A 30.42 1030 N/A 0.00 0.00
3:54 pm 15:54 undefined 54 12.2 34 1.1 47 47 undefined N/A 30.43 1031 N/A 0.00 0.00
4:54 pm 16:54 undefined 54 12.2 35 1.7 49 49 undefined N/A 30.42 1030 N/A 0.00 0.00
5:54 pm 17:54 undefined 53 11.7 35 1.7 51 51 undefined N/A 30.42 1030 N/A 0.00 0.00
6:54 pm 18:54 undefined 52 11.1 36 2.2 55 55 undefined N/A 30.42 1030 N/A 0.00 0.00
7:54 pm 19:54 undefined 51 10.6 40 4.4 66 66 undefined N/A 30.43 1031 N/A 0.00 0.00
8:54 pm 20:54 undefined 52 11.1 42 5.6 69 69 undefined N/A 30.43 1031 N/A 0.00 0.00
9:54 pm 21:54 undefined 52 11.1 44 6.7 75 75 undefined N/A 30.43 1031 N/A 0.00 0.00
10:54 pm 22:54 undefined 53 11.7 44 6.7 72 72 undefined N/A 30.42 1030 N/A 0.00 0.00
11:54 pm 23:54 undefined 53 11.7 44 6.7 72 72 undefined N/A 30.40 1029 N/A 0.00 0.00

Powered by AerisWeather